TimeEDT,TemperatureF,Dew PointF,Humidity,Sea Level PressureIn,VisibilityMPH,Wind Direction,Wind SpeedMPH,Gust SpeedMPH,PrecipitationIn,Events,Conditions,WindDirDegrees,DateUTC
12:15 AM,50.9,50.4,98,30.06,10.0,Calm,Calm,-,N/A,Rain,Rain,0,2013-04-29 04:15:00
12:35 AM,50.9,50.2,97,30.06,10.0,Calm,Calm,-,N/A,Rain,Rain,0,2013-04-29 04:35:00
12:55 AM,50.9,50.0,97,30.06,10.0,Calm,Calm,-,0.01,,Drizzle,0,2013-04-29 04:55:00
1:15 AM,50.9,50.2,97,30.06,10.0,Calm,Calm,-,N/A,,Drizzle,0,2013-04-29 05:15:00
1:35 AM,50.9,50.2,97,30.06,10.0,Calm,Calm,-,N/A,,Light Drizzle,0,2013-04-29 05:35:00
2:15 AM,51.3,50.5,97,30.04,10.0,Calm,Calm,-,N/A,,Overcast,0,2013-04-29 06:15:00
2:35 AM,51.3,51.1,99,30.04,10.0,Calm,Calm,-,N/A,,Drizzle,0,2013-04-29 06:35:00
2:55 AM,50.9,50.9,100,30.04,10.0,ESE,3.5,-,0.01,,Overcast,120,2013-04-29 06:55:00
3:15 AM,50.4,50.2,99,30.04,10.0,Calm,Calm,-,N/A,,Overcast,0,2013-04-29 07:15:00
3:35 AM,50.2,50.0,99,30.03,10.0,Calm,Calm,-,N/A,,Mostly Cloudy,0,2013-04-29 07:35:00
3:55 AM,50.9,50.4,98,30.03,10.0,Calm,Calm,-,N/A,,Mostly Cloudy,0,2013-04-29 07:55:00
4:15 AM,50.4,50.2,99,30.02,10.0,Calm,Calm,-,N/A,,Mostly Cloudy,0,2013-04-29 08:15:00
4:35 AM,50.0,49.6,99,30.02,10.0,Calm,Calm,-,N/A,,Scattered Clouds,0,2013-04-29 08:35:00
4:55 AM,49.1,48.9,99,30.02,10.0,Calm,Calm,-,N/A,,Mostly Cloudy,0,2013-04-29 08:55:00
5:15 AM,49.1,48.7,99,30.02,10.0,Calm,Calm,-,N/A,,Mostly Cloudy,0,2013-04-29 09:15:00
5:35 AM,49.1,48.6,98,30.03,10.0,Calm,Calm,-,N/A,,Overcast,0,2013-04-29 09:35:00
5:55 AM,48.6,47.8,97,30.03,10.0,Calm,Calm,-,N/A,,Overcast,0,2013-04-29 09:55:00
6:15 AM,48.4,47.7,97,30.03,5.0,Calm,Calm,-,N/A,,Mostly Cloudy,0,2013-04-29 10:15:00
6:35 AM,47.7,47.1,98,30.03,1.2,Calm,Calm,-,N/A,,Overcast,0,2013-04-29 10:35:00
6:55 AM,47.7,46.8,97,30.04,1.0,Calm,Calm,-,N/A,,Overcast,0,2013-04-29 10:55:00
7:15 AM,47.8,46.9,97,30.04,0.8,Calm,Calm,-,N/A,,Overcast,0,2013-04-29 11:15:00
7:35 AM,48.7,47.8,97,30.06,0.5,Calm,Calm,-,N/A,Fog,Fog,0,2013-04-29 11:35:00
7:55 AM,49.5,48.6,97,30.05,7.0,Calm,Calm,-,N/A,,Overcast,0,2013-04-29 11:55:00
8:15 AM,50.2,49.3,97,30.06,10.0,West,3.5,-,N/A,,Overcast,260,2013-04-29 12:15:00
8:35 AM,51.1,50.0,96,30.06,10.0,Calm,Calm,-,N/A,,Mostly Cloudy,0,2013-04-29 12:35:00
8:55 AM,53.1,51.8,95,30.06,10.0,Calm,Calm,-,N/A,,Scattered Clouds,0,2013-04-29 12:55:00
9:15 AM,54.3,53.6,97,30.06,10.0,Calm,Calm,-,N/A,,Scattered Clouds,0,2013-04-29 13:15:00
9:35 AM,54.1,52.9,95,30.06,10.0,Calm,Calm,-,N/A,,Overcast,0,2013-04-29 13:35:00
9:55 AM,55.4,53.2,92,30.06,10.0,Calm,Calm,-,N/A,,Overcast,0,2013-04-29 13:55:00
10:15 AM,57.2,53.1,86,30.06,10.0,Calm,Calm,-,N/A,,Mostly Cloudy,0,2013-04-29 14:15:00
10:35 AM,58.3,52.0,80,30.06,10.0,Calm,Calm,-,N/A,,Scattered Clouds,0,2013-04-29 14:35:00
10:55 AM,59.4,51.4,75,30.05,10.0,Calm,Calm,-,N/A,,Scattered Clouds,0,2013-04-29 14:55:00
11:15 AM,61.3,50.7,68,30.04,10.0,Calm,Calm,-,N/A,,Scattered Clouds,0,2013-04-29 15:15:00
11:35 AM,62.1,49.5,63,30.04,10.0,Calm,Calm,-,N/A,,Clear,0,2013-04-29 15:35:00
11:55 AM,63.7,49.3,59,30.04,10.0,Calm,Calm,-,N/A,,Clear,0,2013-04-29 15:55:00
12:15 PM,64.8,49.8,58,30.04,10.0,NNE,5.8,-,N/A,,Scattered Clouds,30,2013-04-29 16:15:00
12:35 PM,65.3,48.4,54,30.03,10.0,Calm,Calm,-,N/A,,Scattered Clouds,0,2013-04-29 16:35:00
12:55 PM,66.2,49.3,54,30.02,10.0,Calm,Calm,-,N/A,,Clear,0,2013-04-29 16:55:00
1:15 PM,66.6,48.6,52,30.01,10.0,Calm,Calm,-,N/A,,Clear,0,2013-04-29 17:15:00
1:35 PM,68.4,49.8,51,30.01,10.0,NNE,3.5,-,N/A,,Clear,30,2013-04-29 17:35:00
1:55 PM,67.5,47.8,49,30.01,10.0,Calm,Calm,-,N/A,,Clear,0,2013-04-29 17:55:00
2:15 PM,68.7,47.3,46,30.00,10.0,Calm,Calm,-,N/A,,Scattered Clouds,0,2013-04-29 18:15:00
2:35 PM,69.3,46.6,44,29.99,10.0,Calm,Calm,-,N/A,,Scattered Clouds,0,2013-04-29 18:35:00
2:55 PM,70.7,46.9,43,29.98,10.0,North,3.5,-,N/A,,Clear,360,2013-04-29 18:55:00
3:15 PM,71.6,45.5,39,29.97,10.0,East,4.6,-,N/A,,Clear,90,2013-04-29 19:15:00
3:35 PM,72.0,43.2,35,29.96,10.0,East,3.5,-,N/A,,Clear,80,2013-04-29 19:35:00
3:55 PM,72.7,41.9,33,29.95,7.0,North,3.5,-,N/A,,Clear,10,2013-04-29 19:55:00
4:15 PM,73.4,41.2,31,29.94,10.0,Calm,Calm,-,N/A,,Clear,0,2013-04-29 20:15:00
4:35 PM,74.3,39.4,28,29.93,10.0,SSE,8.1,-,N/A,,Clear,160,2013-04-29 20:35:00
4:55 PM,72.1,39.0,30,29.93,10.0,Calm,Calm,-,N/A,,Scattered Clouds,0,2013-04-29 20:55:00
5:15 PM,73.2,41.5,32,29.93,10.0,Calm,Calm,-,N/A,,Mostly Cloudy,0,2013-04-29 21:15:00
5:35 PM,73.6,38.7,28,29.93,10.0,South,3.5,-,N/A,,Mostly Cloudy,170,2013-04-29 21:35:00
5:55 PM,70.5,45.1,40,29.93,10.0,SSE,4.6,-,N/A,,Scattered Clouds,150,2013-04-29 21:55:00
6:15 PM,69.8,46.2,43,29.93,10.0,Calm,Calm,-,N/A,,Scattered Clouds,0,2013-04-29 22:15:00
6:35 PM,68.9,46.8,45,29.94,10.0,Calm,Calm,-,N/A,,Clear,0,2013-04-29 22:35:00
6:55 PM,66.4,50.7,57,29.94,10.0,Calm,Calm,-,N/A,,Scattered Clouds,0,2013-04-29 22:55:00
7:15 PM,68.2,47.8,48,29.94,10.0,North,3.5,-,N/A,,Scattered Clouds,350,2013-04-29 23:15:00
7:35 PM,68.0,49.1,51,29.94,10.0,NNW,6.9,-,N/A,,Scattered Clouds,340,2013-04-29 23:35:00
7:55 PM,66.6,48.9,53,29.95,10.0,Calm,Calm,-,N/A,,Scattered Clouds,0,2013-04-29 23:55:00
8:15 PM,63.3,51.4,65,29.97,10.0,Calm,Calm,-,N/A,,Scattered Clouds,0,2013-04-30 00:15:00
8:35 PM,60.8,51.6,72,29.98,10.0,Calm,Calm,-,N/A,,Scattered Clouds,0,2013-04-30 00:35:00
8:55 PM,58.6,52.2,79,29.99,10.0,Calm,Calm,-,N/A,,Mostly Cloudy,0,2013-04-30 00:55:00
9:15 PM,59.5,52.7,78,30.00,10.0,Calm,Calm,-,N/A,,Overcast,0,2013-04-30 01:15:00
9:35 PM,59.4,52.0,77,30.00,10.0,Calm,Calm,-,N/A,,Mostly Cloudy,0,2013-04-30 01:35:00
9:55 PM,58.3,52.2,80,30.01,10.0,Calm,Calm,-,N/A,,Mostly Cloudy,0,2013-04-30 01:55:00
10:15 PM,57.7,52.7,83,30.02,10.0,Calm,Calm,-,N/A,,Overcast,0,2013-04-30 02:15:00
10:35 PM,56.7,52.0,84,30.03,10.0,Calm,Calm,-,N/A,,Overcast,0,2013-04-30 02:35:00
10:55 PM,55.4,51.8,88,30.03,10.0,Calm,Calm,-,N/A,,Scattered Clouds,0,2013-04-30 02:55:00
11:35 PM,52.0,50.9,96,30.03,7.0,Calm,Calm,-,N/A,,Clear,0,2013-04-30 03:35:00
11:55 PM,52.3,51.6,97,30.03,10.0,Calm,Calm,-,N/A,,Mostly Cloudy,0,2013-04-30 03:55:00